Location: La Brionne
(46.1728°N, 1.7849°E)
Time: 17:47:56
(UTC+00:00)

Cosmos 1544 Rocket - Pass Details

Date: 27 October 2021
Orbit: 603 x 632 km, 82.5° (Epoch: 27 November)

Event Time Altitude Azimuth Distance (km) Brightness Sun altitude
Rises 18:10:12 0° 205° (SSW) 2,912 7.4 -15.1°
Reaches altitude 10° 18:12:31 10° 212° (SSW) 2,009 6.6 -15.5°
Maximum altitude 18:16:45 43° 284° (WNW) 892 4.9 -16.3°
Drops below altitude 10° 18:21:02 10° 356° (N) 2,017 6.2 -17.0°
Sets 18:23:22 0° 4° (N) 2,925 7.0 -17.4°
